Flag for Bahrain Weather past 2 weeks in Manama, Bahrain

Now
77 °F

Clear.


Feels Like: 79 °F
Forecast: 74 / 84 °F
Wind: 5 mph from Southeast

Location: Bahrain International Airport

Current Time: Mar 31, 2015 at 5:54:54 AM

Latest Report: Mar 31, 2015 at 5:00 AM


Visibility: 10 mi

Pressure: 29.71 "Hg

Humidity: 69%

Dew point: 66 °F

Location of ManamaLocation

Historic Weather in Manama — Graph

°F

Manama temperature yesterday

Maximum temperature yesterday: 88 °F (at 5:00 PM)
Minimum temperature yesterday: 73 °F (at 12:00 AM)
Average temperature yesterday: 80 °F

Past Weeks' High & Low Weather Summary

 TemperatureHumidityPressure
High88 °F (Mar 30, 5:00 PM)94% (Mar 16, 4:00 AM)30.12 "Hg (Mar 16, 4:00 AM)
Low66 °F (Mar 23, 10:00 PM)22% (Mar 30, 11:00 AM)29.68 "Hg (Mar 31, 1:00 AM)
Average73 °F68%29.94 "Hg
* Reported Mar 16 4:00 AM — Mar 31 4:00 AM, Manama, Weather by CustomWeather, © 2015

Note: Actual official high and low records may vary slightly from our data, if they occured in-between our weather recording intervals... More about our weather records

Advertising

Manama weather history for previous 24 hours

 ConditionsComfort  
Time TempWeatherWind HumidityBarometerVisibility
4:00 AM
Tue, Mar 31
79 °FClear.6 mph54%29.71 "Hg10 mi
3:00 AM79 °FPassing clouds.5 mph54%29.71 "HgN/A
2:00 AM79 °FPassing clouds.6 mph58%29.71 "HgN/A
1:00 AM79 °FPassing clouds.8 mph51%29.68 "HgN/A
12:00 AM79 °FPassing clouds.7 mph51%29.71 "HgN/A
11:00 PM
Mon, Mar 30
81 °FPassing clouds.9 mph39%29.71 "HgN/A
10:00 PM82 °FPassing clouds.7 mph35%29.74 "HgN/A
9:00 PM81 °FClear.10 mph42%29.74 "Hg10 mi
8:00 PM82 °FClear.14 mph35%29.74 "Hg10 mi
7:00 PM84 °FClear.16 mph27%29.74 "Hg10 mi
6:00 PM86 °FClear.18 mph29%29.71 "Hg10 mi
5:00 PM88 °FSunny.14 mph33%29.71 "Hg10 mi
4:00 PM82 °FSunny.9 mph62%29.71 "Hg10 mi
3:00 PM81 °FSunny.12 mph62%29.74 "Hg10 mi
2:00 PM82 °FSunny.13 mph62%29.77 "Hg10 mi
1:00 PM81 °FSunny.12 mph62%29.80 "Hg10 mi
12:00 PM84 °FSunny.13 mph37%29.83 "Hg10 mi
11:00 AM86 °FPassing clouds.9 mph22%29.86 "HgN/A
10:00 AM82 °FSunny.9 mph32%29.89 "Hg10 mi
9:00 AM82 °FPassing clouds.10 mph32%29.86 "HgN/A
8:00 AM81 °FPassing clouds.8 mph34%29.86 "HgN/A
7:00 AM77 °FPassing clouds.5 mph44%29.83 "HgN/A
6:00 AM73 °FPassing clouds.5 mph65%29.83 "HgN/A
5:00 AM73 °FClear.5 mph69%29.83 "Hg10 mi
Weather by CustomWeather, © 2015

See weather overviewHow to use our weather pages